Oceanside, CA

1:07 PM PDT on October 16, 2019 (GMT -0700)
Oceanside Municipal

Weather History for KOKB - September, 2019

Change the Weather History Date:

Sunday, September 22, 2019

  Actual Average Record
Temperature  
Mean Temperature 68 °F 67 °F  
Max Temperature 83 °F 76 °F 89 °F (2004)
Min Temperature 53 °F 58 °F 49 °F (2004)
Degree Days  
Heating Degree Days 0 0  
Month to date heating degree days 0 0  
Since 1 July heating degree days 0 5  
Cooling Degree Days 3 3  
Month to date cooling degree days 131 78  
Year to date cooling degree days 501 378  
Growing Degree Days 18 (Base 50)    
Moisture  
Dew Point 59 °F    
Average Humidity 67    
Maximum Humidity 93    
Minimum Humidity 40    
Precipitation  
Precipitation 0.00 in 0.01 in 0.13 in (2007)
Month to date precipitation T 0.19  
Year to date precipitation 11.07 9.73  
Sea Level Pressure  
Sea Level Pressure 29.86 in    
Wind  
Wind Speed 3 mph (West)    
Max Wind Speed 12 mph    
Max Gust Speed 15 mph    
Visibility 9 miles    
Events      
T = Trace of Precipitation, MM = Missing Value Source: NWS Daily Summary

Daily Weather History Graph

Daily Weather History Graph

Search for Another Location

Airport or City:

Astronomy

Sep. 22, 2019 Rise Set
Actual Time 6:37 AM PDT 6:46 PM PDT
Civil Twilight 6:12 AM PDT 7:10 PM PDT
Nautical Twilight 5:43 AM PDT 7:39 PM PDT
Astronomical Twilight 5:14 AM PDT 8:08 PM PDT
Moon No Moon Rise 2:27 PM PDT (9/22)
Length of Visible Light 12h 58m
Length of Day
12h 08m
Last Quarter, 43% of the Moon is Illuminated
Sep 22
Last Quarter
Sep 28
New
Oct 5
First Quarter
Oct 13
Full
Oct 21
Last Quarter

Hourly Weather History & Observations

Time (PDT) Temp. Heat Index Dew Point Humidity Pressure Visibility Wind Dir Wind Speed Gust Speed Precip Events Conditions
12:52 AM 62.1 °F - 57.9 °F 86% 29.83 in 10.0 mi NE 5.8 mph - N/A   Clear
1:52 AM 61.0 °F - 57.0 °F 87% 29.83 in 10.0 mi Calm Calm - N/A   Clear
2:52 AM 59.0 °F - 57.0 °F 93% 29.82 in 9.0 mi NE 4.6 mph - N/A   Clear
3:52 AM 57.0 °F - 54.0 °F 89% 29.81 in 10.0 mi Calm Calm - N/A   Clear
4:52 AM 55.0 °F - 53.1 °F 93% 29.83 in 10.0 mi Calm Calm - N/A   Clear
5:52 AM 54.0 °F - 52.0 °F 93% 29.85 in 9.0 mi Calm Calm - N/A   Clear
6:36 AM 53.1 °F - 50.0 °F 89% 29.86 in 7.0 mi NE 3.5 mph - N/A   Scattered Clouds
6:44 AM 53.1 °F - 51.1 °F 93% 29.86 in 7.0 mi Calm Calm - N/A   Mostly Cloudy
6:52 AM 54.0 °F - 51.1 °F 90% 29.87 in 7.0 mi Calm Calm - N/A   Mostly Cloudy
7:52 AM 61.0 °F - 54.0 °F 78% 29.88 in 9.0 mi Calm Calm - N/A   Mostly Cloudy
8:13 AM 64.0 °F - 55.0 °F 73% 29.88 in 10.0 mi NE 3.5 mph - N/A   Mostly Cloudy
8:26 AM 66.0 °F - 55.0 °F 68% 29.88 in 10.0 mi NE 3.5 mph - N/A   Partly Cloudy
8:52 AM 69.1 °F - 57.9 °F 68% 29.88 in 9.0 mi ENE 4.6 mph - N/A   Clear
9:52 AM 75.9 °F - 61.0 °F 60% 29.89 in 10.0 mi Calm Calm - N/A   Clear
10:52 AM 82.0 °F 81.4 °F 55.0 °F 39% 29.88 in 10.0 mi Variable 3.5 mph - N/A   Clear
11:52 AM 81.0 °F 82.2 °F 63.0 °F 54% 29.88 in 10.0 mi WSW 9.2 mph - N/A   Clear
12:52 PM 80.1 °F 81.1 °F 61.0 °F 52% 29.86 in 10.0 mi WSW 9.2 mph - N/A   Clear
1:52 PM 78.1 °F - 63.0 °F 60% 29.85 in 9.0 mi WSW 8.1 mph - N/A   Clear
2:52 PM 80.1 °F 81.7 °F 64.0 °F 58% 29.85 in 10.0 mi West 9.2 mph - N/A   Clear
3:52 PM 79.0 °F - 64.0 °F 60% 29.85 in 10.0 mi SW 6.9 mph - N/A   Clear
4:52 PM 82.0 °F 83.0 °F 62.1 °F 51% 29.84 in 10.0 mi SSW 4.6 mph - N/A   Clear
5:52 PM 77.0 °F - 66.9 °F 71% 29.85 in 9.0 mi WSW 10.4 mph - N/A   Clear
6:52 PM 72.0 °F - 66.0 °F 81% 29.85 in 9.0 mi West 5.8 mph - N/A   Clear
7:52 PM 71.1 °F - 66.9 °F 87% 29.87 in 9.0 mi West 5.8 mph - N/A   Partly Cloudy
8:52 PM 70.0 °F - 66.0 °F 87% 29.88 in 9.0 mi Calm Calm - N/A   Partly Cloudy
9:52 PM 66.9 °F - 63.0 °F 87% 29.89 in 9.0 mi Calm Calm - N/A   Clear
10:52 PM 64.0 °F - 61.0 °F 90% 29.89 in 9.0 mi Calm Calm - N/A   Clear
11:52 PM 63.0 °F - 60.1 °F 90% 29.88 in 9.0 mi Calm Calm - N/A   Clear